[[{"header":{"parameterUnit":"m.s-1","parameterCategory":1,"la1":30.2992,"la2":30.254,"lo1":-89.0895,"lo2":-89.0443,"dy":0.0025,"dx":0.0025,"nx":19,"ny":19,"refTime":"2026-05-12T03:00:00:Z","depth":0,"parameterNumber":2,"parameterNumberName":"U-component_of_WINDS"},"data":[0,0,0,-3.089,-3.0895,-3.1084,-3.1085,-3.1361,-3.1363,0,0,0,0,0,0,0,0,0,0,0,-3.0852,-3.0855,-3.089,-3.0895,-3.1084,-3.1085,-3.136,-3.1363,0,0,0,0,0,0,0,0,0,0,0,-3.0851,-3.0854,-3.0857,-3.0896,-3.1084,-3.1085,-3.136,-3.1205,0,0,0,0,0,0,0,0,0,0,-3.1016,-3.0998,-3.0853,-3.0857,-3.0897,-3.1084,-3.1085,-3.1197,-3.1215,-3.1289,0,-3.1356,0,-3.1364,-3.1384,-3.1385,0,0,0,-3.0883,-3.0983,-3.1017,-3.0857,-3.0899,-3.1084,-3.0995,-3.1207,-3.1227,-3.1312,-3.136,-3.1369,-3.1369,-3.1386,-3.1387,-3.1847,-3.185,0,0,-3.0872,-3.0897,-3.1004,-3.1031,-3.1001,-3.0989,-3.1001,-3.1218,-3.1274,-3.1361,-3.1375,-3.1373,-3.1388,-3.139,-3.1844,-3.1848,0,0,0,-3.0851,-3.089,-3.0918,-3.1021,-3.1052,-3.0995,-3.1009,-3.1264,-3.1271,-3.1378,-3.1377,-3.139,-3.1393,-3.1841,-3.1846,-3.2005,0,0,0,-3.0844,-3.0877,-3.0914,-3.0931,-3.1049,-3.116,-3.105,-3.1256,-3.1279,-3.1375,-3.139,-3.1396,-3.1838,-3.1844,-3.1995,-3.2079,0,0,0,-3.0834,-3.0876,-3.0909,-3.0932,-3.1014,-3.1156,-3.1175,-3.126,-3.128,-3.1385,-3.1397,-3.1836,-3.1843,-3.1985,-3.2062,-3.2209,0,0,0,-3.0831,-3.1049,-3.0912,-3.1155,-3.1013,-3.1251,-3.1173,-3.135,-3.146,-3.1391,-3.1839,-3.1845,-3.1982,-3.2053,-3.2198,-3.2338,-3.2397,0,0,-3.112,-3.1085,-3.1226,-3.1108,-3.1378,-3.122,-3.1514,-3.1592,-3.1581,-3.176,-3.177,-3.1998,-3.2061,-3.2206,-3.2716,-3.2764,0,0,0,-3.1326,-3.1428,-3.1494,-3.1598,-3.166,-3.1722,-3.1752,-3.1781,-3.1931,-3.1677,-3.2087,-3.2125,-3.2209,-3.2275,-3.2315,-3.2387,-3.1876,-3.1875,-3.1874,-3.1774,-3.1745,-3.1977,-3.1971,-3.2073,-3.21,-3.2181,-3.2225,-3.2167,-3.2265,-3.232,-3.2632,-3.271,-3.274,-3.2816,-3.2388,-3.2388,-3.2389,-3.2389,-3.2198,-3.2339,-3.2254,-3.2449,-3.2418,-3.2582,-3.2617,-3.2571,-3.2721,-3.2589,-3.2662,-3.2523,-3.2793,-3.2858,-3.2401,-3.2399,-3.2397,-3.2396,-3.2395,-3.2491,-3.2554,-3.2582,-3.2729,-3.2846,-3.2832,-3.298,-3.2945,-3.2915,-3.2986,-3.3042,-3.3039,-3.3035,-3.3014,-3.3015,-3.3016,-3.3017,-3.3018,-3.3019,-3.2786,-3.2812,-3.294,-3.3023,-3.3085,-3.3163,-3.3191,-3.3252,-3.3312,-3.3276,-3.3276,-3.3212,-3.2823,-3.2728,-3.3036,-3.3033,-3.303,-3.3029,-3.3028,-3.3233,-3.3126,-3.3323,-3.3385,-3.348,-3.36,-3.3552,-3.368,-3.3725,-3.38,-3.3718,-3.3434,-3.3397,-3.3365,-3.3287,-3.372,-3.372,-3.372,-3.372,-3.3484,-3.3459,-3.3653,-3.3755,-3.385,-3.3827,-3.4054,-3.4078,-3.4087,-3.4114,-3.4045,-3.3936,-3.3904,-3.3887,-3.3843,-3.377,-3.4317,-3.4317,-3.4318,-3.3759,-3.3742,-3.3941,-3.3944,-3.4016,-3.4079,-3.4292,-3.4415,-3.4402,-3.4341,-3.4135,-3.411,-3.3934,-3.3878,-3.3818,-3.3751,-3.3615,0,0]},{"header":{"parameterUnit":"m.s-1","parameterCategory":1,"la1":30.2992,"la2":30.254,"lo1":-89.0895,"lo2":-89.0443,"dy":0.0025,"dx":0.0025,"nx":19,"ny":19,"refTime":"2026-05-12T03:00:00:Z","depth":0,"parameterNumber":3,"parameterNumberName":"V-component_of_WINDS"},"data":[0,0,0,-2.4575,-2.4577,-2.4669,-2.4669,-2.4789,-2.479,0,0,0,0,0,0,0,0,0,0,0,-2.4551,-2.4552,-2.4575,-2.4577,-2.4669,-2.4669,-2.4789,-2.479,0,0,0,0,0,0,0,0,0,0,0,-2.4551,-2.4552,-2.4553,-2.4578,-2.4668,-2.4669,-2.4789,-2.4718,0,0,0,0,0,0,0,0,0,0,-2.4629,-2.461,-2.4552,-2.4553,-2.4578,-2.4668,-2.4669,-2.4715,-2.4723,-2.475,0,-2.4776,0,-2.4785,-2.4799,-2.4799,0,0,0,-2.4574,-2.4604,-2.4626,-2.4553,-2.4579,-2.4668,-2.4627,-2.4719,-2.4728,-2.476,-2.4777,-2.4782,-2.4787,-2.4799,-2.48,-2.4968,-2.4969,0,0,-2.4569,-2.4569,-2.462,-2.4632,-2.4619,-2.4624,-2.4629,-2.4724,-2.4743,-2.4778,-2.4784,-2.4789,-2.48,-2.4801,-2.4967,-2.4968,0,0,0,-2.4557,-2.4566,-2.4585,-2.4627,-2.4643,-2.4626,-2.4633,-2.4738,-2.4745,-2.4786,-2.479,-2.4801,-2.4803,-2.4966,-2.4968,-2.5014,0,0,0,-2.4554,-2.4558,-2.4583,-2.4584,-2.4641,-2.4692,-2.4645,-2.4738,-2.4749,-2.479,-2.4801,-2.4804,-2.4965,-2.4967,-2.501,-2.5035,0,0,0,-2.4544,-2.4557,-2.4572,-2.4584,-2.4623,-2.4691,-2.4702,-2.4741,-2.4752,-2.4799,-2.4804,-2.4965,-2.4967,-2.5007,-2.503,-2.508,0,0,0,-2.4534,-2.4611,-2.4573,-2.466,-2.4622,-2.4719,-2.4702,-2.4773,-2.4819,-2.4802,-2.4965,-2.4968,-2.5006,-2.5027,-2.5077,-2.5122,-2.5141,0,0,-2.4631,-2.4622,-2.4674,-2.4643,-2.4746,-2.4705,-2.4814,-2.4856,-2.486,-2.4931,-2.4935,-2.5011,-2.503,-2.5079,-2.5246,-2.5261,0,0,0,-2.4705,-2.4742,-2.4769,-2.4814,-2.4848,-2.4879,-2.4904,-2.4919,-2.498,-2.4897,-2.5042,-2.5054,-2.5082,-2.5104,-2.5117,-2.5142,-2.4977,-2.4977,-2.4977,-2.4842,-2.4844,-2.4929,-2.4942,-2.4985,-2.501,-2.5045,-2.5069,-2.5058,-2.5092,-2.5113,-2.5214,-2.524,-2.525,-2.5275,-2.5137,-2.5137,-2.5137,-2.5138,-2.4985,-2.5038,-2.5021,-2.5098,-2.5099,-2.5163,-2.519,-2.5179,-2.5239,-2.5198,-2.5224,-2.518,-2.5266,-2.5289,-2.5141,-2.514,-2.514,-2.514,-2.5139,-2.5076,-2.5102,-2.5119,-2.5184,-2.5232,-2.5242,-2.53,-2.5298,-2.5296,-2.5322,-2.5344,-2.5344,-2.5343,-2.5332,-2.5333,-2.5333,-2.5333,-2.5334,-2.5334,-2.5163,-2.5182,-2.5232,-2.5274,-2.5302,-2.5339,-2.5364,-2.5392,-2.5421,-2.5415,-2.5415,-2.5401,-2.5274,-2.5243,-2.5339,-2.5338,-2.5338,-2.5337,-2.5337,-2.5309,-2.5275,-2.5352,-2.5381,-2.543,-2.5479,-2.5476,-2.5531,-2.5553,-2.5582,-2.5562,-2.5468,-2.5459,-2.5449,-2.5423,-2.5561,-2.5561,-2.5561,-2.5561,-2.5386,-2.5381,-2.5459,-2.5504,-2.5548,-2.5553,-2.5639,-2.5659,-2.5675,-2.5689,-2.5668,-2.5633,-2.5623,-2.562,-2.5606,-2.5582,-2.5757,-2.5757,-2.5757,-2.5475,-2.5475,-2.5549,-2.5564,-2.5603,-2.5636,-2.5717,-2.5769,-2.5779,-2.5765,-2.5699,-2.5691,-2.5635,-2.5616,-2.5602,-2.558,-2.5536,0,0]}]]